Find Globalstar M048

NORAD ID: 25872 Int'l Des: 1999-041 Owner: GLOBT Country: US Constellation: globalstar operational
LEOCIRCULAR

Aktuelle Ansicht

3D-Globus wird geladen...

Über Globalstar M048

Beschreibung wird geladen...

Nächste Überflüge

Passes for default location (London). Set your location on the main map for personalized predictions.

Höhenverlauf

Loading altitude history...

Zweizeiliger Elementsatz

1 25872U 99041A 26149.49120957 -.00000052 00000-0 49943-3 0 9996
2 25872 51.9359 233.8950 0012889 67.1033 21.8888 11.33864005164261
Epoch: 29. Mai 2026 • Age: 13 hours

Aktueller Status

Höhe 2001.9 km
Geschwindigkeit 6.90 km/s
Subsatellitenpunkt -14.58°S, 159.81°E
Startdatum 25. Juli 1999
Alter 26.8 years
Typ communications

Technische Details

Klassifizierung Payload
Masse 450.00 kg
Trockenmasse 380.00 kg
Gesamtmasse 450.00 kg
Länge 1.50 m
Durchmesser 0.60 m
Spannweite 12.00 m
Form Box + 2 Pan
Hersteller LOR
Bus-Typ LS-400
Phasenstatus In Orbit
Besitzer/Staat GLOBT/US

Most Searched